www.pogodaiklimat.ru
ПОГОДА в Галаце

Архив погоды в Галаце (Румыния)

Время
(UTC), дата
07 17.06
08 17.06
09 17.06
10 17.06
11 17.06
12 17.06
13 17.06
14 17.06
15 17.06
16 17.06
17 17.06
18 17.06
19 17.06
20 17.06
21 17.06
22 17.06
23 17.06
00 18.06
01 18.06
02 18.06
03 18.06
04 18.06
05 18.06
06 18.06
07 18.06
08 18.06
09 18.06
10 18.06
11 18.06
12 18.06
13 18.06
14 18.06
15 18.06
16 18.06
17 18.06
18 18.06
19 18.06
20 18.06
21 18.06
22 18.06
23 18.06
00 19.06
01 19.06
02 19.06
03 19.06
04 19.06
05 19.06
06 19.06
07 19.06
08 19.06
09 19.06
10 19.06
11 19.06
12 19.06
13 19.06
14 19.06
15 19.06
16 19.06
17 19.06
18 19.06
19 19.06
20 19.06
21 19.06
22 19.06
23 19.06
00 20.06
01 20.06
02 20.06
03 20.06
04 20.06
05 20.06
06 20.06
07 20.06
08 20.06
09 20.06
10 20.06
11 20.06
12 20.06
13 20.06
14 20.06
15 20.06
16 20.06
17 20.06
18 20.06
19 20.06
20 20.06
21 20.06
22 20.06
23 20.06
00 21.06
01 21.06
02 21.06
03 21.06
04 21.06
05 21.06
06 21.06
07 21.06
08 21.06
09 21.06
10 21.06
11 21.06
12 21.06
13 21.06
14 21.06
15 21.06
16 21.06
17 21.06
18 21.06
19 21.06
20 21.06
21 21.06
22 21.06
23 21.06
00 22.06
01 22.06
02 22.06
03 22.06
04 22.06
05 22.06
06 22.06
07 22.06
08 22.06
09 22.06
10 22.06
11 22.06
12 22.06
13 22.06
14 22.06
15 22.06
16 22.06
17 22.06
18 22.06
19 22.06
20 22.06
21 22.06
22 22.06
23 22.06
00 23.06
01 23.06
02 23.06
03 23.06
04 23.06
05 23.06
06 23.06
07 23.06
08 23.06
09 23.06
10 23.06
11 23.06
12 23.06
13 23.06
14 23.06
15 23.06
16 23.06
17 23.06
18 23.06
19 23.06
20 23.06
21 23.06
22 23.06
23 23.06
00 24.06
01 24.06
02 24.06
03 24.06
04 24.06
05 24.06
06 24.06
Ветер
(напр.,м/с)
Видим. Явления Облачность Т
(С)
Тd
(С)
f
(%)
Тe
(С)
Тes
(С)
Комфортность P
(гПа)
Po
(гПа)
Тmin
(С)
Tmax
(С)
R
(мм)
R24
(мм)
S
(см)
В 1-3 {4} 20 км 5/0
[Ac trans Ci fib]
+25.1 +16.3 58 +28 +40 жарко 1013.2 1005.1
В 1-3 {3} 20 км 3/0
[Ac trans Ci fib]
+27.7 +15.4 47 +31 +47 душно 1013.2 1005.2
В 1-3 {3} 20 км 4/1 1000 м
[Cu hum Ac trans Ci fib]
+28.6 +14.8 43 +31 +47 жарко 1013.2 1005.2
В 1-4 {4} 20 км 4/3 600 м
[Cu med, cong Ac trans]
+30.2 +13.9 37 +32 +46 жарко 1013.3 1005.2
В 2-4 {5} 20 км 5/4 600 м
[Cu med, cong Ac trans]
+30.7 +13.4 35 +32 +42 жарко 1013.0 1005.0
В 1-4 {4} 20 км 8/5 600 м
[Cb calv Ac trans]
+31.2 +13.8 35 +33 +39 жарко 1013.0 1005.0 0
С 1-2 {4} 20 км 8/6 600 м
[Cb calv Ac cuf]
+29.2 +13.9 39 +31 +35 жарко 1013.4 1005.4
В 1-4 {5} 20 км 6/4 600 м
[Cb calv Ac cuf Ci fib]
+31.4 +15.1 37 +34 +39 душно 1013.1 1005.1
ЮВ 1-3 {4} 20 км 4/1 600 м
[Cu med, cong Ac cuf Ci fib]
+31.3 +14.3 36 +33 +37 жарко 1013.0 1005.0
В 1-2 {3} 20 км 4/3 600 м
[Cu med, cong Ci fib]
+31.2 +14.5 36 +33 +35 жарко 1013.0 1005.0
В 1-2 {4} 20 км 4/3 600 м
[Cu med, cong Ac lent]
+30.7 +14.5 37 +33 +33 душно 1013.3 1005.3
штиль 0-1 {4} 20 км 4/1 600 м
[Sc diur, vesp Ac lent]
+28.5 +15.5 45 +31 +31 душно 1013.8 1005.7 +23.4 +32.1 0
штиль 0-2 {2} 20 км 3/1 600 м
[Sc diur, vesp Ac lent]
+26.3 +16.4 54 +30 +30 душно 1014.4 1006.3
штиль 0-1 {2} 20 км 1/1 600 м
[Sc diur, vesp]
+25.0 +15.9 57 +28 +28 жарко 1015.1 1007.0
штиль 0-2 {2} 20 км 3/0
[Ac trans]
+24.8 +15.5 56 +28 +28 жарко 1015.5 1007.3
С 1-3 {3} 20 км 4/0
[Ac trans]
+24.4 +15.4 57 +27 +27 жарко 1015.7 1007.5
З 1-3 {4} 20 км 9/0
[Ac As]
+23.9 +16.3 62 +27 +27 жарко 1015.9 1007.7
С 2-4 {4} 20 км 9/0
[Ac As]
+24.2 +16.0 60 +27 +27 жарко 1016.2 1008.0 0
СВ 2 20 км н/о +22.4 +16.1 68 +27 +27 душно 1016.5 1008.2
С 2 20 км н/о +21.6 +15.8 70 +25 +25 комфорт 1016.6 1008.4
С 2 20 км н/о +21.4 +15.7 70 +25 +25 комфорт 1016.8 1008.5
С 2 20 км н/о +21.9 +16.0 69 +26 +26 душно 1017.2 1009.0
С 2-6 {6} 20 км 3/0
[Ac trans Ci fib]
+22.3 +17.2 73 +27 +31 душно 1017.9 1009.7
С 2-5 {6} 20 км 3/0
[Ac trans Ci fib]
+23.9 +17.4 67 +28 +35 душно 1018.1 1009.9 +21.4 +28.5 0
С 2-5 {6} 20 км 3/0
[Ac trans Ci fib]
+26.0 +18.4 63 +31 +41 очень душно 1018.2 1010.0
С 2-4 {5} 20 км 3/0
[Ac cast]
+28.5 +18.3 54 +33 +45 очень душно 1018.5 1010.4
СВ 1-4 {5} 20 км 3/1 1000 м
[Cu hum Ac cast]
+30.1 +17.2 46 +34 +50 очень душно 1018.5 1010.4
СВ 1-4 {5} 20 км 3/1 600 м
[Cu med, cong Ac trans]
+30.6 +15.9 41 +33 +51 опасность солнечного удара 1018.4 1010.3
СВ 1-3 {4} 20 км 4/4 600 м
[Cu med, cong]
+31.4 +16.6 41 +35 +48 очень душно 1018.1 1010.1
СВ 2-3 {5} 20 км 5/4 600 м
[Cu med, cong Ci sp]
+32.0 +15.4 37 +34 +44 душно 1017.9 1009.9 0
СВ 1-3 {4} 20 км 6/4 600 м
[Cb calv Ci ing]
+31.8 +15.0 36 +34 +42 душно 1017.5 1009.5
СВ 1-3 {3} 20 км 8/5 600 м
[Cb calv Ci ing]
+31.0 +15.2 38 +33 +38 душно 1017.6 1009.6
В 2-6 {6} 20 км 9/6 600 м
[Cb calv Ci ing]
+29.6 +18.7 52 +35 +36 очень душно 1017.8 1009.7
В 2-4 {6} 20 км 8/4 600 м
[Cb calv Ac cuf Ci fib]
+29.2 +18.0 51 +34 +35 очень душно 1017.6 1009.5
В 1-3 {3} 20 км 6/1 600 м
[Cu med, cong Ac trans Ci fib]
+29.0 +16.9 48 +33 +33 очень душно 1017.8 1009.7
ЮВ 2-4 {4} 20 км 8/1 600 м
[Sc diur, vesp Ac trans Cs]
+28.1 +18.8 57 +33 +33 очень душно 1017.8 1009.7 +24.0 +32.7 0
В 1-2 {3} 20 км 8/0
[Ac trans Cs]
+26.6 +18.1 60 +31 +31 душно 1018.1 1010.0
В 1-2 {2} 20 км 8/0
[Ac trans Cs]
+25.5 +17.4 61 +30 +30 душно 1018.7 1010.5
В 1-1 {2} 20 км 9/0
[Cs]
+24.8 +17.2 63 +29 +29 душно 1018.7 1010.5
В 1-1 {2} 20 км 9/0
[Cs]
+24.3 +16.7 63 +28 +28 душно 1018.7 1010.5
В 1-1 {2} 20 км 8/0
[Cs]
+23.4 +18.2 73 +29 +29 душно 1018.6 1010.4
В 1-1 {2} 20 км 8/0
[Cs]
+22.8 +18.1 75 +28 +28 душно 1018.4 1010.1 0
СВ 1 20 км н/о +21.9 +18.2 80 +27 +27 душно 1018.4 1010.2
СВ 1 20 км н/о +21.5 +18.8 85 +26 +26 душно 1018.4 1010.1
С 1 20 км н/о +21.1 +18.6 86 +25 +25 комфорт 1018.7 1010.4
СВ 1 20 км н/о +21.3 +18.9 86 +26 +26 душно 1018.9 1010.6
СВ 1-3 {3} 20 км 3/0
[Ci fib]
+22.8 +17.8 73 +28 +33 душно 1018.9 1010.7
В 1-3 {4} 20 км 1/0
[Ci fib]
+23.5 +19.1 76 +28 +37 душно 1019.1 1010.9 +20.6 +28.1 0
В 1-3 {3} 20 км 1/0
[Ci fib]
+26.2 +19.5 67 +32 +45 очень душно 1019.3 1011.1
ЮВ 2-4 {4} 20 км 1/0
[Ci fib]
+29.2 +14.3 40 +31 +46 жарко 1019.1 1011.1
Ю 3-5 {6} 20 км 1/0
[Ci fib]
+31.4 +12.4 31 +32 +47 жарко 1019.0 1010.9
Ю 2-6 {6} 20 км 1/0
[Ci fib]
+31.8 +12.5 31 +32 +51 опасность солнечного удара 1018.7 1010.7
Ю 3-6 {7} 20 км 1/0
[Ci fib]
+32.3 +13.2 31 +33 +48 жарко 1018.5 1010.5
Ю 3-5 {8} 20 км 3/1 1000 м
[Cu hum Ci fib]
+33.4 +13.9 31 +35 +46 душно 1017.9 1009.9 0
ЮВ 2-6 {6} 20 км 3/1 1000 м
[Cu hum Ci fib]
+33.5 +13.1 29 +34 +45 очень жарко 1017.3 1009.3
Ю 2-4 {6} 20 км 1/1 1000 м
[Cu hum]
+33.6 +12.7 28 +34 +42 очень жарко 1017.0 1009.0
Ю 2-5 {6} 20 км 1/1 600 м
[Cu med, cong]
+33.3 +12.6 28 +34 +38 очень жарко 1016.6 1008.7
Ю 2-4 {5} 20 км 3/1 1000 м
[Cu hum Ci fib]
+33.3 +12.9 29 +34 +36 очень жарко 1016.3 1008.4
В 2-5 {5} 20 км 4/0
[Ac trans Ci fib]
+30.9 +17.6 45 +35 +35 очень душно 1016.2 1008.2
ЮВ 2-5 {8} 20 км 4/0
[Ac lent Ci fib]
+29.9 +13.9 38 +32 +32 жарко 1016.1 1008.1 +23.6 +34.2 0
ЮВ 2-5 {6} 20 км 1/0
[Ci fib]
+27.7 +13.7 42 +30 +30 жарко 1016.4 1008.3
Ю 2-6 {6} 20 км 1/0
[Ci fib]
+26.8 +13.1 43 +29 +29 жарко 1016.7 1008.6
Ю 4-7 {8} 20 км ясно +25.5 +13.3 47 +28 +28 жарко 1016.8 1008.6
Ю 3-7 {9} 20 км ясно +24.5 +13.8 51 +27 +27 жарко 1016.7 1008.5
Ю 3-6 {7} 20 км ясно +23.7 +14.1 55 +26 +26 жарко 1016.6 1008.4
Ю 3-5 {7} 20 км ясно +22.9 +14.4 59 +27 +27 душно 1016.3 1008.0 0
Ю 2 20 км н/о +21.9 +14.4 62 +25 +25 комфорт 1016.4 1008.2
Ю 2 20 км н/о +21.4 +14.4 64 +24 +24 комфорт 1016.0 1007.7
Ю 2 20 км н/о +21.2 +14.4 65 +24 +24 комфорт 1015.6 1007.3
Ю 3 20 км н/о +22.2 +13.8 59 +25 +25 комфорт 1015.3 1007.1
Ю 4-8 {8} 20 км ясно +23.6 +13.5 53 +26 +29 жарко 1014.6 1006.4
Ю 2-6 {8} 20 км ясно +24.8 +14.3 52 +27 +35 жарко 1015.0 1006.9 +21.1 +29.9 0
ЮЗ 2-7 {8} 20 км ясно +27.5 +14.9 46 +30 +42 жарко 1015.0 1006.9
Ю 2-6 {7} 19 км 3/0
[Ci fib]
+29.9 +16.6 45 +33 +48 душно 1015.0 1006.9
Ю 3-6 {7} 20 км 3/0
[Ci fib]
+31.4 +16.9 42 +35 +49 очень душно 1014.8 1006.8
З 2-5 {7} 20 км 3/1 1000 м
[Cu hum Ci fib]
+33.2 +18.1 41 +38 +54 опасность солнечного удара 1015.0 1007.0
С 3-7 {7} 11 км 1/1 600 м
[Cu med, cong]
+33.2 +19.8 45 +39 +53 опасность солнечного удара 1015.1 1007.1
С 4-9 {9} 20 км 1/1 600 м
[Cu med, cong]
+33.2 +18.4 42 +38 +48 очень душно 1015.3 1007.4 0
С 3-8 {11} 20 км 1/1 1000 м
[Cu hum]
+32.3 +18.5 44 +37 +47 очень душно 1015.7 1007.7
С 4-10 {10} 20 км 1/1 1000 м
[Cu hum]
+31.2 +18.5 47 +36 +41 очень душно 1016.0 1008.0
С 3-8 {10} 13 км 1/1 1000 м
[Cu hum]
+30.1 +17.2 46 +34 +38 очень душно 1016.6 1008.6
С 3-8 {9} 19 км 1/1 600 м
[Sc]
+28.7 +15.7 45 +32 +33 душно 1017.5 1009.4
С 2-6 {9} 20 км 3/1 600 м
[Sc Ac lent]
+27.5 +14.9 46 +30 +30 жарко 1018.1 1010.0
С 2-5 {8} 20 км 3/0
[Ac lent Ci fib]
+25.8 +12.8 44 +28 +28 жарко 1018.6 1010.5 +24.8 +35.1 0
С 3-6 {6} 20 км 3/0
[Ac lent Ci fib]
+25.0 +12.6 46 +27 +27 жарко 1019.5 1011.3
С 3-5 {6} 20 км 3/0
[Ac lent Ci fib]
+24.1 +12.0 47 +26 +26 жарко 1020.1 1011.9
СЗ 3-6 {6} 20 км ясно +23.1 +11.4 48 +25 +25 комфорт 1020.5 1012.2
С 3-6 {6} 20 км ясно +22.5 +10.7 47 +24 +24 комфорт 1020.8 1012.6
С 2-5 {6} 20 км ясно +21.5 +10.7 50 +23 +23 комфорт 1021.0 1012.7
С 1-3 {5} 20 км ясно +20.1 +11.0 56 +23 +23 комфорт 1021.1 1012.8 0
С 2 20 км н/о +19.6 +10.2 55 +21 +21 комфорт 1021.3 1012.9
СВ 2 20 км н/о +18.7 +9.8 56 +20 +20 1021.2 1012.8
СВ 2 20 км н/о +18.0 +10.1 60 +19 +19 1021.2 1012.8
СВ 2 20 км н/о +18.3 +9.8 58 +19 +19 1021.3 1012.9
СВ 2-4 {4} 20 км 4/1 600 м
[Sc Ac trans Ci fib]
+19.2 +10.2 56 +21 +24 комфорт 1021.7 1013.3
СВ 1-4 {4} 20 км 4/1 600 м
[Sc Ac trans Ci sp]
+21.1 +11.5 54 +23 +30 комфорт 1021.7 1013.4 +17.8 +25.8 0
В 2-5 {6} 20 км 4/0
[Ac trans Ci sp]
+23.1 +10.2 44 +25 +35 комфорт 1021.2 1013.0
В 2-4 {6} 20 км 4/0
[Ac cast Ci fib]
+24.2 +10.2 41 +25 +37 комфорт 1021.3 1013.1
В 1-5 {5} 20 км 4/0
[Ac trans Ci fib]
+25.2 +10.4 39 +26 +45 жарко 1020.9 1012.7
В 1-5 {5} 20 км 4/0
[Ci sp]
+26.3 +10.4 37 +27 +48 жарко 1020.4 1012.2
СВ 1-3 {5} 20 км 3/0
[Ci sp]
+27.0 +10.5 36 +28 +48 жарко 1019.6 1011.4
В 2-4 {5} 20 км 3/0
[Ci sp]
+27.1 +10.5 35 +28 +43 жарко 1019.2 1011.0 0
СВ 2-4 {4} 20 км 3/0
[Ci sp]
+27.9 +10.9 35 +29 +41 жарко 1018.2 1010.1
СВ 1-4 {5} 20 км 4/0
[Ci sp]
+28.6 +11.2 34 +29 +39 жарко 1017.5 1009.4
СВ 1-3 {4} 20 км 4/0
[Ci fib]
+28.8 +11.1 33 +29 +35 жарко 1016.8 1008.7
СЗ 1-2 {3} 20 км 5/0
[Cs]
+29.5 +11.0 32 +30 +32 жарко 1016.4 1008.3
В 1-3 {3} 20 км 5/0
[Cs]
+28.0 +11.8 37 +29 +30 жарко 1016.2 1008.1
ЮВ 1-3 {3} 20 км 3/0
[Ci fib]
+26.9 +11.9 39 +28 +28 жарко 1015.8 1007.7 +20.8 +29.6 0
ЮВ 1-2 {3} 20 км 1/0
[Ci fib]
+24.8 +14.8 54 +28 +28 жарко 1015.9 1007.8
Ю 2-4 {6} 20 км 3/0
[Ci fib]
+23.6 +15.9 62 +27 +27 жарко 1016.0 1007.8
Ю 3-6 {6} 20 км ясно +22.3 +16.4 69 +27 +27 душно 1016.0 1007.8
Ю 2-5 {7} 20 км ясно +21.0 +16.3 75 +25 +25 комфорт 1016.2 1007.9
Ю 2-5 {6} 20 км ясно +20.4 +16.0 76 +24 +24 комфорт 1015.9 1007.6
Ю 2-3 {5} 20 км 3/0
[Ci fib]
+19.6 +15.9 79 +22 +22 комфорт 1015.9 1007.6 0
ЮЗ 1 20 км н/о +19.4 +15.8 80 +22 +22 комфорт 1015.8 1007.4
ЮЗ 1 16 км н/о +19.0 +15.8 82 +21 +21 комфорт 1015.6 1007.2
Ю 1 20 км н/о +18.7 +15.8 83 +21 +21 комфорт 1015.2 1006.8
ЮВ 1 20 км н/о +19.8 +15.7 77 +23 +23 комфорт 1014.9 1006.6
ЮВ 2-3 {4} 20 км ясно +21.0 +15.4 70 +25 +29 комфорт 1015.3 1007.0
Ю 1-5 {5} 20 км ясно +22.5 +15.0 63 +26 +35 жарко 1015.6 1007.3 +18.7 +26.9 0
Ю 1-5 {6} 17 км ясно +24.7 +12.7 47 +27 +40 жарко 1015.1 1006.9
Ю 2-4 {6} 13 км ясно +26.3 +13.7 46 +28 +44 жарко 1014.8 1006.7
Ю 2-5 {5} 20 км ясно +27.6 +12.7 40 +29 +47 жарко 1014.5 1006.4
Ю 2-6 {8} 20 км ясно +28.5 +12.6 37 +30 +30 жарко 1014.0 1006.0
ЮЗ 1-4 {5} 20 км ясно +29.0 +11.6 34 +30 +51 опасность солнечного удара 1013.4 1005.4
ЮВ 2-5 {5} 20 км ясно +31.1 +13.0 33 +32 +48 жарко 1012.6 1004.6 0
ЮВ 2-4 {5} 20 км ясно +31.5 +13.1 33 +33 +45 жарко 1012.0 1004.0
В 1-4 {5} 20 км ясно +31.4 +14.4 36 +33 +43 жарко 1011.6 1003.6
В 2-4 {5} 20 км ясно +31.0 +16.6 42 +34 +39 душно 1011.2 1003.2
В 2-5 {6} 20 км ясно +30.5 +15.0 39 +33 +35 душно 1010.7 1002.8
В 2-5 {6} 20 км ясно +28.5 +15.1 44 +31 +31 душно 1010.4 1002.4
В 1-2 {5} 20 км ясно +26.9 +16.0 51 +30 +30 душно 1010.6 1002.5 +22.6 +32.2 0
ЮВ 2-6 {6} 20 км ясно +25.7 +13.1 46 +28 +28 жарко 1011.2 1003.1
ЮВ 2-5 {5} 20 км ясно +24.1 +11.1 44 +25 +25 комфорт 1011.8 1003.7
Ю 1-4 {5} 20 км ясно +23.6 +10.6 44 +25 +25 комфорт 1012.2 1004.0
В 1-2 {3} 20 км ясно +22.1 +11.4 51 +24 +24 комфорт 1012.6 1004.3
Ю 2-4 {4} 20 км ясно +21.5 +9.3 46 +23 +23 комфорт 1012.1 1003.9
Ю 1-3 {6} 20 км ясно +20.4 +8.9 48 +23 +23 комфорт 1011.8 1003.6 0
Ю 2 20 км н/о +19.7 +13.9 69 +22 +22 комфорт 1011.2 1002.9
ЮЗ 1 20 км н/о +18.6 +14.3 76 +20 +20 1011.2 1002.9
ЮЗ 1 20 км н/о +17.8 +15.4 86 +19 +19 1011.3 1003.0
Ю 1 20 км н/о +18.9 +15.9 83 +21 +21 комфорт 1011.2 1002.9
Ю 1-4 {4} 20 км 6/0
[Cs]
+20.3 +16.2 77 +24 +28 комфорт 1011.6 1003.4
Ю 1-4 {7} 20 км 5/0
[Cs]
+21.6 +16.0 70 +25 +33 комфорт 1012.8 1004.5 +17.8 +26.9 0
В 1-3 {5} 20 км 3/0
[Ci fib]
+23.9 +16.5 63 +27 +40 жарко 1012.7 1004.5
ЮВ 1-4 {6} 20 км ясно +27.4 +9.7 33 +28 +46 жарко 1011.8 1003.7
В 1-4 {5} 20 км ясно +28.6 +8.7 29 +28 +49 жарко 1011.6 1003.5
В 2-5 {7} 20 км 1/0
[Ci fib]
+29.7 +8.2 26 +29 +48 жарко 1011.0 1003.0
В 2-4 {6} 20 км ясно +30.3 +8.3 25 +29 +48 жарко 1010.9 1003.0
СВ 2-4 {4} 20 км ясно +31.3 +8.2 24 +30 +46 жарко 1010.6 1002.7 0
СВ 2-5 {5} 20 км ясно +32.0 +8.0 23 +31 +43 жарко 1010.2 1002.2
СВ 2-4 {5} 20 км 1/0
[Ci fib]
+32.6 +10.5 26 +32 +41 жарко 1009.8 1001.8
СВ 2-5 {5} 20 км 3/1 600 м
[Cb cap Ci fib]
+32.0 +12.3 30 +32 +37 жарко 1010.5 1002.6
В 2-4 {4} 20 км 1/1 600 м
[Cb cap]
+32.1 +11.8 29 +32 +34 жарко 1010.0 1002.1
В 2-5 {5} 20 км 3/1 600 м
[Cb cap Ci fib]
+29.6 +11.7 33 +30 +31 жарко 1010.2 1002.2
В 2-4 {4} 20 км 5/0
[Cs]
+27.6 +13.0 41 +29 +29 жарко 1010.5 1002.4 +21.6 +33.1 0
В 2-3 {4} 20 км 6/0
[Cs]
+26.0 +13.7 47 +28 +28 жарко 1010.8 1002.7
ЮВ 1-2 {2} 20 км 3/0
[Ac lent Ci fib]
+24.4 +13.9 52 +27 +27 жарко 1011.4 1003.2
Ю 1-2 {3} 20 км 4/0
[Ac lent Cs]
+23.5 +14.3 56 +26 +26 жарко 1011.7 1003.5
СЗ 1-3 {3} 20 км 5/0
[Cs]
+22.7 +13.5 56 +26 +26 жарко 1012.2 1004.0
Ю 1-4 {4} 20 км 6/0
[Cs]
+22.1 +14.5 62 +25 +25 комфорт 1012.3 1004.1
ЮЗ 1-1 {5} 20 км 5/0
[Cs]
+21.2 +14.8 67 +24 +24 комфорт 1012.3 1004.0 0
Ю 2 20 км н/о +20.8 +15.1 70 +24 +24 комфорт 1012.4 1004.2
С 1 20 км н/о +21.0 +15.6 71 +25 +25 комфорт 1012.5 1004.2
С 2 20 км н/о +20.4 +17.8 85 +24 +24 комфорт 1012.4 1004.2
СВ 2 20 км н/о +21.0 +17.6 81 +26 +26 душно 1012.7 1004.4
С 2-5 {6} 20 км 3/0
[Ac lent Ci fib]
+22.6 +17.9 75 +28 +31 душно 1013.0 1004.7
С 2-7 {7} 20 км 8/0
[Ac und Cc]
+23.8 +17.9 70 +28 +33 душно 1013.6 1005.4 +20.3 +27.5 0
Местоположение метеостанции Галац (Румыния): широта 45.48 долгота 28.03 высота над уровнем моря 72 м.
В архиве по умолчанию представлена погода в Галаце за последнюю неделю. Архивные данные за месяц целиком и за предыдущие месяцы, начиная с января 2011 года, Вы можете получить, выбрав интересующий диапазон дат из раскрывающегося списка и нажав кнопку "Найти!".
*Определитесь, кто Вы:
Внимание! Время в таблицах - всемирное. Для получения местного времени необходимо прибавить поправку, которая равна 2 ч.
Некоторые строки с данными для отдельных станций могут быть выделены курсивом. Это означает, что фактические данные отсутствуют по различным причинам, а приведенные значения являются расчетными модельными данными для данного пункта наблюдений.
Смотрите также архив погоды в соседних городах и на ближайших метеорологических станциях:
Партнеры нашего сайта:      
Пояснения к столбцам:
  • Ветер - указаны скорость ветра в м/с - средняя за 10 мин, порывы в срок и между сроками (в фигурных скобках) и направление, откуда дует ветер: С - северный,
  • СВ - северо-восточный, В - восточный, ЮВ - юго-восточный, Ю - южный, ЮЗ - юго-западный, З - западный, СЗ - северо-западный.
  • Видимость - горизонтальная дальность видимости в метрах или километрах. При видимости от 1 до 10 км при отсутствии осадков обычно наблюдается дымка, при ухудшении видимости до 1 км и менее - туман. В сухую погоду видимость может ухудшаться дымом, пылью или мглою.
  • Явления - указаны атмосферные явления, наблюдавшиеся в срок или в последний час перед сроком; фигурными скобками обозначены явления, наблюдавшиеся между сроками (за 1-3 часа до срока); квадратными скобками обозначены град или гололедные отложения с указанием их диаметра в мм.
  • Облачность - указаны через наклонную черту общая и нижняя облачность в баллах и высота нижней границы облаков в метрах; квадратными скобками обозначены формы облаков: Ci - перистые, Cs - перисто-слоистые, Cc - перисто-кучевые, Ac - высококучевые, As - высокослоистые, Sc - слоисто-кучевые, Ns - слоисто-дождевые, Cu - кучевые, Cb - кучево-дождевые. Подробнее классификацию облаков см. в Атласе облаков (PDF).
  • T - Температура воздуха - температура, измеренная на высоте 2 м над землей.
  • Td - Температура точки росы - температура, при понижении до которой содержащийся в воздухе водяной пар достигнет насыщения.
  • f - Относительная влажность воздуха - влажноcть воздуха, измеренная на высоте 2 м над землей.
  • Te - Эффективная температура - температура, которую ощущает одетый по сезону человек в тени. Характеристика душности погоды. При расчете учитывается влияние влажности воздуха и скорости ветра на теплоощущения человека.
  • Tes - Эффективная температура на солнце - температура, которую ощущает человек, с поправкой на солнечный нагрев. Характеристика знойности погоды. Зависит от высоты солнца над горизонтом, облачности и скорости ветра. Ночью, в пасмурную погоду, а также при ветре 12 м/с и более поправка равна нулю.
  • P - Атмосферное давление - приведенное к уровню моря атмосферное давление.
  • Po - Атмосферное давление - измеренное на уровне метеостанции атмосферное давление.
  • Tmin - Минимальная температура - минимум температуры воздуха на высоте 2 м над землей.
  • Tmax - Максимальная температура - максимум температуры воздуха на высоте 2 м над землей.
  • R - Количество осадков - Количество выпавших осадков за период времени, мм. При наведении курсора мыши на число - период времени, за который выпало указанное количество осадков.
  • R24 - Количество осадков - Количество выпавших осадков за 24 часа, мм.
  • S - Снежный покров - Высота снежного покрова, см. При наведении курсора мыши на число - состояние снежного покрова и степень покрытия местности в баллах.